Location: Sweet Grass
(48.9965°N, 111.9649°W)
Time: 23:32:30
(UTC+00:00)

deb Agena D - Visible Passes

Search period start: 06 December 2023 00:00
Search period end: 16 December 2023 00:00
Orbit: 604 x 648 km, 70.0° (Epoch: 06 December)

Date Brightness Start Highest point End Pass type
(mag) Time Alt. Az. Time Alt. Az. Time Alt. Az.
06 Dec ? 00:12:50 10° SSW 00:17:13 88° ESE 00:21:39 10° NNE visible
06 Dec ? 01:54:26 10° W 01:57:20 17° NW 01:59:55 11° N visible
07 Dec ? 00:32:45 10° SW 00:37:00 48° NW 00:41:18 10° NNE visible
07 Dec ? 02:16:20 10° NW 02:17:36 11° NNW 02:18:53 10° NNW visible
08 Dec ? 00:53:10 10° WSW 00:56:56 27° NW 01:00:44 10° NNE visible
09 Dec ? 01:14:06 10° W 01:17:00 17° NW 01:19:56 10° N visible
10 Dec ? 01:35:59 10° NW 01:37:14 11° NNW 01:38:29 10° NNW visible
11 Dec ? 00:12:44 10° WSW 00:16:30 27° NW 00:20:19 10° NNE visible
12 Dec ? 00:33:38 10° W 00:36:32 17° NW 00:39:28 10° N visible
13 Dec ? 00:55:27 10° NW 00:56:42 11° NNW 00:57:57 10° NNW visible
